Location: Bothwell
(41.7170°N, 112.2589°W)
Time: 01:40:04
(UTC+00:00)

STARLINK-37202 - Pass Details

Date: 19 April 2026
Orbit: 265 x 267 km, 97.3° (Epoch: 18 April)

Event Time Altitude Azimuth Distance (km) Brightness Sun altitude
Rises 04:07:28 0° 11° (N) 1,909 5.7 -19.9°
Reaches altitude 10° 04:09:18 10° 10° (N) 1,092 4.5 -20.1°
Enters shadow 04:09:30 12° 10° (N) 1,003 4.3 -20.2°
